| time (UTC) | temp F | wind direction | speed MPH | gust MPH | rain 1hr in | rain 24hr in | rain mn in | humidity % | barometer mb |
| 20260506040050 | 47 | 5 | 2.0 | 7.0 | 0.00 | 0.00 | 0.00 | 100 | 1012.1 |
| 20260506035531 | 47 | 32 | 1.0 | 5.0 | 0.00 | 0.00 | 0.00 | 100 | 1012.1 |
| 20260506035032 | 47 | 5 | 1.0 | 8.0 | 0.00 | 0.00 | 0.00 | 100 | 1012.1 |
| 20260506034543 | 47 | 30 | 2.0 | 8.0 | 0.00 | 0.00 | 0.00 | 100 | 1012.1 |
| 20260506034033 | 47 | 10 | 2.0 | 8.0 | 0.00 | 0.00 | 0.00 | 100 | 1012.1 |
| 20260506033533 | 47 | 15 | 2.0 | 6.0 | 0.00 | 0.00 | 0.00 | 100 | 1012.1 |
| 20260506033047 | 47 | 19 | 2.0 | 10.0 | 0.00 | 0.00 | 0.00 | 100 | 1012.2 |
| 20260506032534 | 47 | 32 | 1.0 | 10.0 | 0.00 | 0.00 | 0.00 | 100 | 1012.2 |
| 20260506032032 | 47 | 40 | 2.0 | 10.0 | 0.00 | 0.00 | 0.00 | 100 | 1012.1 |
| 20260506031546 | 47 | 307 | 2.0 | 7.0 | 0.00 | 0.00 | 0.00 | 100 | 1012.2 |
| 20260506031036 | 48 | 5 | 2.0 | 7.0 | 0.00 | 0.00 | 0.00 | 100 | 1012.1 |
| 20260506030532 | 48 | 53 | 2.0 | 7.0 | 0.00 | 0.00 | 0.00 | 100 | 1012.2 |
| 20260506030043 | 48 | 21 | 2.0 | 9.0 | 0.00 | 0.00 | 0.00 | 100 | 1012.2 |
| 20260506025532 | 48 | 48 | 3.0 | 9.0 | 0.00 | 0.00 | 0.00 | 100 | 1012.3 |
| 20260506025033 | 48 | 5 | 2.0 | 10.0 | 0.00 | 0.00 | 0.00 | 100 | 1012.3 |
| 20260506024546 | 48 | 13 | 2.0 | 10.0 | 0.00 | 0.00 | 0.00 | 100 | 1012.3 |
| 20260506024032 | 48 | 86 | 3.0 | 10.0 | 0.00 | 0.00 | 0.00 | 100 | 1012.4 |
| 20260506023533 | 48 | 348 | 2.0 | 10.0 | 0.00 | 0.00 | 0.00 | 100 | 1012.4 |
| 20260506023040 | 48 | 14 | 3.0 | 10.0 | 0.00 | 0.00 | 0.00 | 100 | 1012.4 |
| 20260506022533 | 48 | 19 | 4.0 | 9.0 | 0.00 | 0.00 | 0.00 | 100 | 1012.4 |
| 20260506022033 | 48 | 317 | 3.0 | 9.0 | 0.00 | 0.00 | 0.00 | 100 | 1012.4 |
| 20260506021556 | 48 | 24 | 2.0 | 9.0 | 0.00 | 0.00 | 0.00 | 100 | 1012.4 |
| 20260506021032 | 48 | 360 | 4.0 | 8.0 | 0.00 | 0.00 | 0.00 | 100 | 1012.5 |
| 20260506020534 | 48 | 24 | 3.0 | 8.0 | 0.00 | 0.00 | 0.00 | 100 | 1012.5 |
| 20260506020044 | 48 | 26 | 2.0 | 10.0 | 0.00 | 0.00 | 0.00 | 100 | 1012.4 |
| 20260506015532 | 48 | 345 | 4.0 | 12.0 | 0.00 | 0.00 | 0.00 | 100 | 1012.6 |
| 20260506015032 | 48 | 360 | 5.0 | 12.0 | 0.00 | 0.00 | 0.00 | 100 | 1012.6 |
| 20260506014543 | 49 | 5 | 2.0 | 9.0 | 0.00 | 0.00 | 0.00 | 100 | 1012.5 |
| 20260506014031 | 49 | 5 | 3.0 | 9.0 | 0.00 | 0.00 | 0.00 | 100 | 1012.6 |
| 20260506013532 | 49 | 5 | 4.0 | 11.0 | 0.00 | 0.00 | 0.00 | 100 | 1012.5 |
| 20260506013045 | 49 | 57 | 3.0 | 11.0 | 0.00 | 0.00 | 0.00 | 100 | 1012.4 |
| 20260506012532 | 49 | 30 | 3.0 | 9.0 | 0.00 | 0.00 | 0.00 | 100 | 1012.5 |
| 20260506012032 | 49 | 5 | 4.0 | 8.0 | 0.00 | 0.00 | 0.00 | 100 | 1012.5 |
| 20260506011546 | 49 | 36 | 2.0 | 6.0 | 0.00 | 0.00 | 0.00 | 100 | 1012.5 |
| 20260506011033 | 49 | 22 | 3.0 | 7.0 | 0.00 | 0.00 | 0.00 | 100 | 1012.5 |
| 20260506010533 | 49 | 52 | 3.0 | 9.0 | 0.00 | 0.00 | 0.00 | 100 | 1012.4 |
| 20260506010053 | 49 | 5 | 2.0 | 9.0 | 0.00 | 0.00 | 0.00 | 100 | 1012.5 |
| 20260506005532 | 49 | 78 | 4.0 | 9.0 | 0.00 | 0.00 | 0.00 | 100 | 1012.5 |
| 20260506005031 | 49 | 24 | 3.0 | 9.0 | 0.00 | 0.00 | 0.00 | 100 | 1012.4 |
| 20260506004544 | 49 | 22 | 3.0 | 10.0 | 0.00 | 0.00 | 0.00 | 100 | 1012.4 |
| 20260506004032 | 50 | 15 | 3.0 | 10.0 | 0.00 | 0.00 | 0.00 | 100 | 1012.5 |
| 20260506003532 | 50 | 17 | 3.0 | 10.0 | 0.00 | 0.00 | 0.00 | 100 | 1012.5 |
| 20260506003040 | 50 | 10 | 2.0 | 11.0 | 0.00 | 0.00 | 0.00 | 100 | 1012.5 |
| 20260506002532 | 50 | 27 | 2.0 | 11.0 | 0.00 | 0.00 | 0.00 | 100 | 1012.5 |
| 20260506002033 | 50 | 13 | 4.0 | 11.0 | 0.00 | 0.00 | 0.00 | 100 | 1012.5 |
| 20260506001541 | 50 | 11 | 4.0 | 12.0 | 0.00 | 0.00 | 0.00 | 100 | 1012.5 |
| 20260506001032 | 50 | 42 | 3.0 | 12.0 | 0.00 | 0.00 | 0.00 | 100 | 1012.5 |
| 20260506000532 | 50 | 5 | 4.0 | 12.0 | 0.00 | 0.00 | 0.00 | 100 | 1012.5 |
| 20260506000039 | 50 | 5 | 4.0 | 11.0 | 0.00 | 0.00 | 0.00 | 100 | 1012.5 |
| 20260505235532 | 51 | 360 | 4.0 | 9.0 | 0.00 | 0.00 | 0.00 | 100 | 1012.5 |
| 20260505235035 | 51 | 58 | 3.0 | 8.0 | 0.00 | 0.00 | 0.00 | 100 | 1012.5 |
| 20260505234604 | 51 | 5 | 1.0 | 6.0 | 0.00 | 0.00 | 0.00 | 100 | 1012.6 |
| 20260505234033 | 51 | 32 | 2.0 | 6.0 | 0.00 | 0.00 | 0.00 | 100 | 1012.6 |
| 20260505233532 | 51 | 40 | 1.0 | 6.0 | 0.00 | 0.00 | 0.00 | 100 | 1012.5 |
| 20260505233047 | 51 | 15 | 2.0 | 5.0 | 0.00 | 0.00 | 0.00 | 100 | 1012.6 |
| 20260505232535 | 51 | 30 | 2.0 | 5.0 | 0.00 | 0.00 | 0.00 | 100 | 1012.6 |
| 20260505232032 | 51 | 9 | 1.0 | 5.0 | 0.00 | 0.00 | 0.00 | 100 | 1012.6 |
| 20260505231542 | 51 | 17 | 1.0 | 5.0 | 0.00 | 0.00 | 0.00 | 100 | 1012.8 |
| 20260505231035 | 51 | 5 | 3.0 | 8.0 | 0.00 | 0.00 | 0.00 | 100 | 1012.8 |
| 20260505230534 | 51 | 15 | 3.0 | 8.0 | 0.00 | 0.00 | 0.00 | 100 | 1012.6 |
| 20260505230042 | 51 | 5 | 1.0 | 4.0 | 0.00 | 0.00 | 0.00 | 100 | 1012.7 |
| 20260505225535 | 51 | 32 | 1.0 | 4.0 | 0.00 | 0.00 | 0.00 | 100 | 1012.7 |
| 20260505225033 | 51 | 43 | 1.0 | 5.0 | 0.00 | 0.00 | 0.00 | 100 | 1012.8 |
| 20260505224544 | 51 | 41 | 2.0 | 7.0 | 0.00 | 0.00 | 0.00 | 100 | 1012.9 |
| 20260505224031 | 51 | 322 | 2.0 | 7.0 | 0.00 | 0.00 | 0.00 | 100 | 1012.8 |
| 20260505223532 | 51 | 21 | 2.0 | 7.0 | 0.00 | 0.00 | 0.00 | 100 | 1012.6 |
| 20260505223057 | 51 | 64 | 2.0 | 6.0 | 0.00 | 0.00 | 0.00 | 100 | 1012.8 |
| 20260505222532 | 51 | 49 | 2.0 | 9.0 | 0.00 | 0.00 | 0.00 | 100 | 1012.8 |
| 20260505222032 | 51 | 30 | 2.0 | 9.0 | 0.00 | 0.00 | 0.00 | 100 | 1012.8 |
| 20260505221543 | 51 | 14 | 2.0 | 8.0 | 0.00 | 0.00 | 0.00 | 100 | 1012.9 |
| 20260505221031 | 51 | 360 | 1.0 | 4.0 | 0.00 | 0.00 | 0.00 | 100 | 1012.8 |
| 20260505220532 | 52 | 30 | 1.0 | 5.0 | 0.00 | 0.00 | 0.00 | 100 | 1012.8 |
| 20260505220043 | 52 | 5 | 1.0 | 6.0 | 0.00 | 0.00 | 0.00 | 100 | 1012.7 |
| 20260505215534 | 52 | 39 | 2.0 | 6.0 | 0.00 | 0.00 | 0.00 | 100 | 1012.8 |
| 20260505215032 | 52 | 89 | 1.0 | 7.0 | 0.00 | 0.00 | 0.00 | 100 | 1012.8 |
| 20260505214552 | 52 | 32 | 2.0 | 8.0 | 0.00 | 0.00 | 0.00 | 100 | 1012.8 |
| 20260505214035 | 52 | 57 | 3.0 | 8.0 | 0.00 | 0.00 | 0.00 | 100 | 1012.8 |
| 20260505213533 | 52 | 17 | 1.0 | 7.0 | 0.00 | 0.00 | 0.00 | 100 | 1012.8 |
| 20260505213045 | 52 | 46 | 1.0 | 7.0 | 0.00 | 0.00 | 0.00 | 100 | 1012.8 |
| 20260505212533 | 52 | 33 | 1.0 | 5.0 | 0.00 | 0.00 | 0.00 | 100 | 1012.8 |
| 20260505212036 | 52 | 42 | 1.0 | 5.0 | 0.00 | 0.00 | 0.00 | 100 | 1012.9 |
| 20260505211549 | 52 | 28 | 2.0 | 5.0 | 0.00 | 0.00 | 0.00 | 100 | 1012.9 |
| 20260505211034 | 52 | 23 | 2.0 | 5.0 | 0.00 | 0.00 | 0.00 | 100 | 1012.8 |
| 20260505210533 | 53 | 58 | 2.0 | 5.0 | 0.00 | 0.00 | 0.00 | 100 | 1012.7 |
| 20260505210042 | 53 | 96 | 1.0 | 6.0 | 0.00 | 0.00 | 0.00 | 100 | 1012.8 |
| 20260505205532 | 53 | 44 | 2.0 | 7.0 | 0.00 | 0.00 | 0.00 | 100 | 1012.8 |
| 20260505205032 | 53 | 36 | 1.0 | 9.0 | 0.00 | 0.00 | 0.00 | 100 | 1012.7 |
| 20260505204542 | 53 | 45 | 2.0 | 9.0 | 0.00 | 0.00 | 0.00 | 100 | 1012.7 |
| 20260505204033 | 53 | 42 | 3.0 | 9.0 | 0.00 | 0.00 | 0.00 | 100 | 1012.7 |
| 20260505203532 | 53 | 37 | 1.0 | 5.0 | 0.00 | 0.00 | 0.00 | 100 | 1012.7 |
| 20260505203051 | 53 | 49 | 1.0 | 5.0 | 0.00 | 0.00 | 0.00 | 100 | 1012.7 |
| 20260505202532 | 53 | 57 | 2.0 | 5.0 | 0.00 | 0.00 | 0.00 | 100 | 1012.6 |
| 20260505202031 | 54 | 11 | 2.0 | 5.0 | 0.00 | 0.00 | 0.00 | 100 | 1012.4 |
| 20260505201545 | 54 | 62 | 1.0 | 6.0 | 0.00 | 0.00 | 0.00 | 100 | 1012.4 |
| 20260505201032 | 54 | 46 | 1.0 | 6.0 | 0.00 | 0.00 | 0.00 | 100 | 1012.3 |
| 20260505200534 | 54 | 352 | 1.0 | 5.0 | 0.00 | 0.00 | 0.00 | 100 | 1012.4 |
| 20260505200045 | 54 | 51 | 2.0 | 6.0 | 0.00 | 0.00 | 0.00 | 100 | 1012.3 |
| 20260505195534 | 54 | 34 | 1.0 | 6.0 | 0.00 | 0.00 | 0.00 | 100 | 1012.3 |
| 20260505195033 | 54 | 36 | 1.0 | 9.0 | 0.00 | 0.00 | 0.00 | 100 | 1012.2 |
| 20260505194545 | 54 | 61 | 2.0 | 9.0 | 0.00 | 0.00 | 0.00 | 100 | 1012.1 |
| 20260505194034 | 55 | 24 | 2.0 | 5.0 | 0.00 | 0.00 | 0.00 | 100 | 1012.0 |
| 20260505193532 | 55 | 32 | 2.0 | 5.0 | 0.00 | 0.00 | 0.00 | 100 | 1012.0 |
| 20260505193042 | 55 | 82 | 1.0 | 4.0 | 0.00 | 0.00 | 0.00 | 100 | 1011.8 |
| 20260505192535 | 55 | 53 | 1.0 | 4.0 | 0.00 | 0.00 | 0.00 | 100 | 1011.8 |
| 20260505192032 | 55 | 67 | 1.0 | 5.0 | 0.00 | 0.00 | 0.00 | 100 | 1011.8 |
| 20260505191546 | 56 | 34 | 1.0 | 5.0 | 0.00 | 0.00 | 0.00 | 100 | 1011.6 |
| 20260505191032 | 56 | 57 | 2.0 | 5.0 | 0.00 | 0.00 | 0.00 | 100 | 1011.6 |
| 20260505190532 | 56 | 58 | 1.0 | 3.0 | 0.00 | 0.00 | 0.00 | 100 | 1011.6 |
| 20260505190049 | 56 | 67 | 1.0 | 3.0 | 0.00 | 0.00 | 0.00 | 100 | 1011.7 |
| 20260505185534 | 56 | 11 | 0.0 | 4.0 | 0.00 | 0.00 | 0.00 | 100 | 1011.7 |
| 20260505185032 | 56 | 0 | 1.0 | 4.0 | 0.00 | 0.00 | 0.00 | 100 | 1011.6 |
| 20260505184546 | 56 | 55 | 1.0 | 4.0 | 0.00 | 0.00 | 0.00 | 100 | 1011.5 |
| 20260505184032 | 56 | 55 | 2.0 | 4.0 | 0.00 | 0.00 | 0.00 | 100 | 1011.4 |
| 20260505183534 | 56 | 53 | 1.0 | 6.0 | 0.00 | 0.00 | 0.00 | 100 | 1011.5 |
| 20260505183047 | 56 | 90 | 1.0 | 6.0 | 0.00 | 0.00 | 0.00 | 100 | 1011.5 |
| 20260505182535 | 56 | 0 | 1.0 | 6.0 | 0.00 | 0.00 | 0.00 | 100 | 1011.6 |
| 20260505182031 | 57 | 30 | 2.0 | 5.0 | 0.00 | 0.00 | 0.00 | 100 | 1011.5 |
| 20260505181549 | 57 | 0 | 1.0 | 4.0 | 0.00 | 0.00 | 0.00 | 100 | 1011.5 |
| 20260505181037 | 57 | 81 | 1.0 | 5.0 | 0.00 | 0.00 | 0.00 | 100 | 1011.6 |
| 20260505180536 | 57 | 78 | 2.0 | 5.0 | 0.00 | 0.00 | 0.00 | 100 | 1011.7 |
| 20260505180046 | 57 | 19 | 1.0 | 5.0 | 0.00 | 0.00 | 0.00 | 100 | 1011.7 |
| 20260505175532 | 57 | 66 | 2.0 | 5.0 | 0.00 | 0.00 | 0.00 | 100 | 1011.7 |
| 20260505175033 | 57 | 18 | 1.0 | 7.0 | 0.00 | 0.00 | 0.00 | 100 | 1011.7 |
| 20260505174537 | 57 | 0 | 1.0 | 7.0 | 0.00 | 0.00 | 0.00 | 100 | 1011.6 |
| 20260505174032 | 58 | 27 | 2.0 | 6.0 | 0.00 | 0.00 | 0.00 | 100 | 1011.6 |
| 20260505173533 | 58 | 58 | 2.0 | 5.0 | 0.00 | 0.00 | 0.00 | 100 | 1011.7 |
| 20260505173042 | 58 | 55 | 1.0 | 5.0 | 0.00 | 0.00 | 0.00 | 100 | 1011.7 |
| 20260505172531 | 58 | 69 | 1.0 | 5.0 | 0.00 | 0.00 | 0.00 | 100 | 1011.6 |
| 20260505172033 | 58 | 13 | 2.0 | 9.0 | 0.00 | 0.00 | 0.00 | 100 | 1011.6 |
| 20260505171543 | 58 | 55 | 2.0 | 9.0 | 0.00 | 0.00 | 0.00 | 100 | 1011.6 |
| 20260505171032 | 58 | 36 | 2.0 | 9.0 | 0.00 | 0.00 | 0.00 | 100 | 1011.7 |
| 20260505170532 | 58 | 59 | 2.0 | 9.0 | 0.00 | 0.00 | 0.00 | 100 | 1011.6 |
| 20260505170043 | 59 | 13 | 2.0 | 10.0 | 0.00 | 0.00 | 0.00 | 100 | 1011.7 |
| 20260505165532 | 59 | 22 | 1.0 | 10.0 | 0.00 | 0.00 | 0.00 | 100 | 1011.7 |
| 20260505165034 | 59 | 49 | 2.0 | 7.0 | 0.00 | 0.00 | 0.00 | 100 | 1011.6 |
| 20260505164542 | 59 | 26 | 1.0 | 7.0 | 0.00 | 0.00 | 0.00 | 100 | 1011.5 |
| 20260505164033 | 59 | 11 | 2.0 | 7.0 | 0.00 | 0.00 | 0.00 | 100 | 1011.6 |
| 20260505163532 | 59 | 5 | 2.0 | 6.0 | 0.00 | 0.00 | 0.00 | 100 | 1011.4 |
| 20260505163044 | 59 | 30 | 1.0 | 8.0 | 0.00 | 0.00 | 0.00 | 100 | 1011.5 |
| 20260505162536 | 59 | 34 | 2.0 | 8.0 | 0.00 | 0.00 | 0.00 | 100 | 1011.7 |
| 20260505162032 | 59 | 46 | 3.0 | 7.0 | 0.00 | 0.00 | 0.00 | 100 | 1011.6 |
| 20260505161544 | 59 | 5 | 1.0 | 6.0 | 0.00 | 0.00 | 0.00 | 100 | 1011.6 |
| 20260505161036 | 59 | 22 | 2.0 | 6.0 | 0.00 | 0.00 | 0.00 | 100 | 1011.6 |
| 20260505160532 | 59 | 51 | 2.0 | 6.0 | 0.00 | 0.00 | 0.00 | 100 | 1011.6 |
| 20260505153053 | 60 | 43 | 4.0 | 9.0 | 0.00 | 0.00 | 0.00 | 100 | 1011.7 |
| 20260505152533 | 60 | 360 | 3.0 | 9.0 | 0.00 | 0.00 | 0.00 | 100 | 1011.7 |
| 20260505152033 | 60 | 5 | 3.0 | 7.0 | 0.00 | 0.00 | 0.00 | 100 | 1011.6 |
| 20260505151544 | 60 | 28 | 3.0 | 8.0 | 0.00 | 0.00 | 0.00 | 100 | 1011.7 |
| 20260505151032 | 61 | 61 | 2.0 | 8.0 | 0.00 | 0.00 | 0.00 | 100 | 1011.8 |
| 20260505150532 | 61 | 21 | 2.0 | 8.0 | 0.00 | 0.00 | 0.00 | 100 | 1011.7 |
| 20260505140532 | 62 | 36 | 4.0 | 12.0 | 0.00 | 0.00 | 0.00 | 100 | 1012.0 |
| 20260505125032 | 60 | 92 | 3.0 | 13.0 | 0.00 | 0.00 | 0.00 | 100 | 1012.2 |
| 20260505124551 | 60 | 5 | 7.0 | 13.0 | 0.00 | 0.00 | 0.00 | 100 | 1012.2 |
| 20260505124033 | 61 | 115 | 2.0 | 11.0 | 0.00 | 0.00 | 0.00 | 100 | 1012.1 |
| 20260505123531 | 60 | 27 | 4.0 | 11.0 | 0.00 | 0.00 | 0.00 | 100 | 1012.1 |
| 20260505123046 | 60 | 360 | 2.0 | 9.0 | 0.00 | 0.00 | 0.00 | 100 | 1012.2 |
| 20260505122533 | 60 | 37 | 3.0 | 9.0 | 0.00 | 0.00 | 0.00 | 100 | 1012.2 |
| 20260505122031 | 60 | 47 | 3.0 | 7.0 | 0.00 | 0.00 | 0.00 | 100 | 1012.2 |
| 20260505121550 | 59 | 0 | 2.0 | 7.0 | 0.00 | 0.00 | 0.00 | 100 | 1012.2 |
| 20260505121033 | 59 | 21 | 1.0 | 7.0 | 0.00 | 0.00 | 0.00 | 100 | 1012.1 |
| 20260505120535 | 59 | 360 | 2.0 | 9.0 | 0.00 | 0.00 | 0.00 | 100 | 1012.3 |
| 20260505120105 | 58 | 31 | 3.0 | 9.0 | 0.00 | 0.00 | 0.00 | 100 | 1012.3 |
| 20260505115533 | 59 | 0 | 3.0 | 9.0 | 0.00 | 0.00 | 0.00 | 100 | 1012.4 |
| 20260505115032 | 59 | 94 | 3.0 | 9.0 | 0.00 | 0.00 | 0.00 | 100 | 1012.3 |
| 20260505114543 | 59 | 0 | 3.0 | 10.0 | 0.00 | 0.00 | 0.00 | 100 | 1012.3 |
| 20260505114032 | 59 | 90 | 2.0 | 10.0 | 0.00 | 0.00 | 0.00 | 100 | 1012.4 |
| 20260505113533 | 59 | 21 | 3.0 | 10.0 | 0.00 | 0.00 | 0.00 | 100 | 1012.4 |
| 20260505113044 | 59 | 28 | 2.0 | 8.0 | 0.00 | 0.00 | 0.00 | 100 | 1012.5 |
| 20260505112532 | 58 | 55 | 3.0 | 14.0 | 0.00 | 0.00 | 0.00 | 100 | 1012.5 |
| 20260505112033 | 58 | 29 | 4.0 | 14.0 | 0.00 | 0.00 | 0.00 | 100 | 1012.5 |
| 20260505111544 | 58 | 37 | 4.0 | 10.0 | 0.00 | 0.00 | 0.00 | 100 | 1012.5 |
| 20260505111033 | 58 | 30 | 3.0 | 12.0 | 0.00 | 0.00 | 0.00 | 100 | 1012.6 |
| 20260505110532 | 58 | 31 | 5.0 | 12.0 | 0.00 | 0.00 | 0.00 | 100 | 1012.6 |
| 20260505102033 | 56 | 142 | 4.0 | 12.0 | 0.00 | 0.00 | 0.00 | 100 | 1012.7 |
| 20260505101545 | 56 | 51 | 4.0 | 12.0 | 0.00 | 0.00 | 0.00 | 100 | 1012.7 |
| 20260505101032 | 56 | 10 | 2.0 | 9.0 | 0.00 | 0.00 | 0.00 | 100 | 1012.7 |
| 20260505100532 | 56 | 360 | 3.0 | 9.0 | 0.00 | 0.00 | 0.00 | 100 | 1012.8 |
| 20260505100038 | 56 | 65 | 2.0 | 10.0 | 0.00 | 0.00 | 0.00 | 100 | 1012.9 |
| 20260505095532 | 55 | 11 | 4.0 | 10.0 | 0.00 | 0.00 | 0.00 | 100 | 1012.9 |
| 20260505095034 | 55 | 360 | 2.0 | 11.0 | 0.00 | 0.00 | 0.00 | 100 | 1013.0 |
| 20260505094550 | 55 | 28 | 4.0 | 11.0 | 0.00 | 0.00 | 0.00 | 100 | 1013.0 |
| 20260505094034 | 55 | 360 | 3.0 | 8.0 | 0.00 | 0.00 | 0.00 | 100 | 1013.0 |
| 20260505093532 | 55 | 11 | 3.0 | 8.0 | 0.00 | 0.00 | 0.00 | 100 | 1013.1 |
| 20260505093052 | 55 | 88 | 3.0 | 10.0 | 0.00 | 0.00 | 0.00 | 100 | 1013.1 |
| 20260505092534 | 55 | 39 | 4.0 | 10.0 | 0.00 | 0.00 | 0.00 | 100 | 1013.2 |
| 20260505092033 | 55 | 39 | 3.0 | 10.0 | 0.00 | 0.00 | 0.00 | 100 | 1013.1 |
| 20260505091543 | 55 | 349 | 4.0 | 10.0 | 0.00 | 0.00 | 0.00 | 100 | 1013.1 |
| 20260505091035 | 55 | 13 | 4.0 | 9.0 | 0.00 | 0.00 | 0.00 | 100 | 1013.2 |
| 20260505090532 | 55 | 15 | 3.0 | 10.0 | 0.00 | 0.00 | 0.00 | 100 | 1013.1 |
| 20260505090056 | 54 | 350 | 3.0 | 10.0 | 0.00 | 0.00 | 0.00 | 100 | 1013.2 |
| 20260505085537 | 54 | 17 | 5.0 | 10.0 | 0.00 | 0.00 | 0.00 | 100 | 1013.2 |
| 20260505085033 | 54 | 49 | 3.0 | 10.0 | 0.00 | 0.00 | 0.00 | 100 | 1013.2 |
| 20260505084538 | 54 | 72 | 4.0 | 15.0 | 0.00 | 0.00 | 0.00 | 100 | 1013.2 |
| 20260505084033 | 54 | 32 | 5.0 | 15.0 | 0.00 | 0.00 | 0.00 | 100 | 1013.2 |
| 20260505083534 | 54 | 5 | 5.0 | 11.0 | 0.00 | 0.00 | 0.00 | 100 | 1013.2 |
| 20260505083101 | 53 | 81 | 3.0 | 11.0 | 0.00 | 0.00 | 0.00 | 100 | 1013.2 |
| 20260505082530 | 53 | 24 | 3.0 | 11.0 | 0.00 | 0.00 | 0.00 | 100 | 1013.2 |
| 20260505082031 | 53 | 17 | 3.0 | 11.0 | 0.00 | 0.00 | 0.00 | 100 | 1013.3 |
| 20260505081544 | 53 | 30 | 5.0 | 11.0 | 0.00 | 0.00 | 0.00 | 100 | 1013.2 |
| 20260505081034 | 54 | 55 | 4.0 | 10.0 | 0.00 | 0.00 | 0.00 | 100 | 1013.3 |
| 20260505080533 | 54 | 40 | 4.0 | 10.0 | 0.00 | 0.00 | 0.00 | 100 | 1013.3 |
| 20260505080044 | 54 | 58 | 3.0 | 9.0 | 0.00 | 0.00 | 0.00 | 100 | 1013.3 |
| 20260505075532 | 53 | 5 | 4.0 | 10.0 | 0.00 | 0.00 | 0.00 | 100 | 1013.2 |
| 20260505075033 | 53 | 17 | 3.0 | 10.0 | 0.00 | 0.00 | 0.00 | 100 | 1013.2 |
| 20260505074542 | 53 | 30 | 4.0 | 10.0 | 0.00 | 0.00 | 0.00 | 100 | 1013.2 |
| 20260505074033 | 53 | 20 | 3.0 | 10.0 | 0.00 | 0.00 | 0.00 | 100 | 1013.3 |
| 20260505073532 | 53 | 5 | 1.0 | 10.0 | 0.00 | 0.00 | 0.00 | 100 | 1013.2 |
| 20260505073042 | 53 | 17 | 4.0 | 10.0 | 0.00 | 0.00 | 0.00 | 100 | 1013.2 |
| 20260505072532 | 53 | 13 | 4.0 | 11.0 | 0.00 | 0.00 | 0.00 | 100 | 1013.2 |
| 20260505072033 | 53 | 30 | 4.0 | 13.0 | 0.00 | 0.00 | 0.00 | 100 | 1013.1 |
| 20260505071544 | 53 | 360 | 3.0 | 13.0 | 0.00 | 0.00 | 0.00 | 100 | 1013.2 |
| 20260505071033 | 53 | 39 | 4.0 | 13.0 | 0.00 | 0.00 | 0.00 | 100 | 1013.1 |
| 20260505070532 | 53 | 352 | 4.0 | 10.0 | 0.00 | 0.00 | 0.00 | 100 | 1013.3 |
| 20260505070048 | 53 | 58 | 4.0 | 10.0 | 0.00 | 0.00 | 0.00 | 100 | 1013.2 |
| 20260505065533 | 53 | 69 | 4.0 | 10.0 | 0.00 | 0.00 | 0.00 | 100 | 1013.2 |
| 20260505065031 | 52 | 15 | 3.0 | 8.0 | 0.00 | 0.00 | 0.00 | 100 | 1013.3 |
| 20260505064537 | 52 | 59 | 1.0 | 8.0 | 0.00 | 0.00 | 0.00 | 100 | 1013.4 |
| 20260505064032 | 52 | 64 | 2.0 | 8.0 | 0.00 | 0.00 | 0.00 | 100 | 1013.4 |
| 20260505063533 | 51 | 27 | 2.0 | 10.0 | 0.00 | 0.00 | 0.00 | 100 | 1013.4 |
| 20260505063043 | 51 | 360 | 3.0 | 10.0 | 0.00 | 0.00 | 0.00 | 100 | 1013.5 |
| 20260505062532 | 51 | 34 | 4.0 | 9.0 | 0.00 | 0.00 | 0.00 | 100 | 1013.4 |
| 20260505062032 | 51 | 360 | 2.0 | 9.0 | 0.00 | 0.00 | 0.00 | 100 | 1013.4 |
| 20260505061608 | 50 | 32 | 3.0 | 9.0 | 0.00 | 0.00 | 0.00 | 100 | 1013.4 |
| 20260505061034 | 50 | 61 | 1.0 | 8.0 | 0.00 | 0.00 | 0.00 | 100 | 1013.4 |
| 20260505060533 | 50 | 13 | 3.0 | 7.0 | 0.00 | 0.00 | 0.00 | 100 | 1013.4 |
| 20260505060044 | 50 | 21 | 2.0 | 7.0 | 0.00 | 0.00 | 0.00 | 100 | 1013.3 |
| 20260505055532 | 50 | 5 | 2.0 | 7.0 | 0.00 | 0.00 | 0.00 | 100 | 1013.3 |
| 20260505055032 | 50 | 22 | 2.0 | 6.0 | 0.00 | 0.00 | 0.00 | 100 | 1013.3 |
| 20260505054545 | 50 | 11 | 1.0 | 5.0 | 0.00 | 0.00 | 0.00 | 100 | 1013.2 |
| 20260505054032 | 50 | 360 | 2.0 | 5.0 | 0.00 | 0.00 | 0.00 | 100 | 1013.4 |
| 20260505053532 | 50 | 11 | 1.0 | 5.0 | 0.00 | 0.00 | 0.00 | 100 | 1013.4 |
| 20260505053045 | 49 | 27 | 1.0 | 6.0 | 0.00 | 0.00 | 0.00 | 100 | 1013.3 |
| 20260505052535 | 49 | 74 | 1.0 | 6.0 | 0.00 | 0.00 | 0.00 | 100 | 1013.3 |
| 20260505052035 | 49 | 34 | 2.0 | 6.0 | 0.00 | 0.00 | 0.00 | 100 | 1013.4 |
| 20260505051549 | 50 | 5 | 2.0 | 6.0 | 0.00 | 0.00 | 0.00 | 100 | 1013.4 |
| 20260505051035 | 49 | 13 | 2.0 | 7.0 | 0.00 | 0.00 | 0.00 | 100 | 1013.4 |
| 20260505050533 | 49 | 360 | 2.0 | 7.0 | 0.00 | 0.00 | 0.00 | 100 | 1013.3 |
| 20260505041541 | 50 | 0 | 0.0 | 3.0 | 0.00 | 0.00 | 0.00 | 100 | 1013.6 |
| 20260505041034 | 50 | 24 | 0.0 | 3.0 | 0.00 | 0.00 | 0.00 | 100 | 1013.7 |
| 20260505040534 | 50 | 0 | 0.0 | 3.0 | 0.00 | 0.00 | 0.00 | 100 | 1013.7 |
| 20260505040058 | 50 | 0 | 0.0 | 3.0 | 0.00 | 0.00 | 0.00 | 100 | 1013.7 |